Location: La Bilong�re
(48.1297°N, 1.4584°W)
Time: 11:19:35
(UTC+00:00)

CZ-4 R/B - Pass Details

Date: 03 March 2021
Orbit: 532 x 597 km, 97.7° (Epoch: 11 April)

Event Time Altitude Azimuth Distance (km) Brightness Sun altitude
Rises 19:38:50 0° 203° (SSW) 2,669 5.0 -18.3°
Reaches altitude 10° 19:41:25 10° 222° (SW) 1,789 4.3 -18.7°
Maximum altitude 19:44:12 19° 268° (W) 1,330 4.2 -19.2°
Drops below altitude 10° 19:47:01 10° 314° (NW) 1,817 4.8 -19.7°
Sets 19:49:41 0° 333° (NNW) 2,727 5.5 -20.1°
